Temp
-12 -13 -12 -11 -11 -12 -12 -12 -12 -12 -12 -12 -12 -12 -12 -12 -12 -12 -12 -12 -12 -12 -12 -12 -12 -12 -12 -12 -12 -12 -12 -11 -11 -12 -12 -12 -12 -11 -12 -11 -11 -11 -12
-12 -13 -12 -11 -12 -12 -12 -12 -12 -12 -12 -12 -12 -12 -12 -12 -12 -12 -12 -12 -13 -12 -13 -13 -13 -13 -13 -13 -13 -13 -12 -12 -12 -12 -12 -12 -12 -13 -12 -12 -12 -12 -12
-13 -14 -12 -12 -12 -13 -13 -13 -13 -13 -13 -13 -13 -12 -12 -12 -12 -12 -13 -13 -13 -13 -13 -13 -13 -14 -14 -14 -14 -14 -13 -13 -13 -12 -13 -13 -12 -13 -13 -12 -12 -12 -12
-14 -13 -12 -12 -12 -13 -13 -13 -13 -13 -13 -13 -13 -12 -12 -12 -12 -13 -13 -13 -14 -14 -14 -14 -14 -15 -15 -15 -14 -14 -14 -14 -13 -13 -13 -13 -13 -13 -14 -13 -14 -13 -13
-13 -12 -13 -13 -14 -14 -14 -13 -13 -13 -13 -13 -13 -13 -13 -13 -13 -14 -14 -14 -14 -15 -15 -15 -15 -15 -16 -16 -16 -15 -15 -15 -14 -14 -14 -15 -14 -14 -13 -14 -14 -14 -13
-13 -14 -13 -13 -13 -15 -14 -14 -14 -14 -13 -13 -13 -14 -14 -14 -14 -15 -15 -15 -16 -16 -16 -16 -16 -16 -16 -16 -16 -16 -16 -16 -15 -15 -14 -14 -14 -14 -14 -14 -14 -14 -14
-14 -14 -14 -14 -14 -14 -13 -14 -14 -14 -14 -14 -15 -15 -15 -15 -15 -16 -16 -16 -16 -17 -17 -16 -17 -16 -16 -16 -16 -16 -16 -16 -16 -15 -15 -15 -15 -14 -14 -15 -14 -14 -15
-15 -15 -14 -14 -14 -15 -15 -15 -15 -14 -15 -15 -15 -16 -16 -16 -16 -17 -17 -17 -17 -17 -17 -17 -17 -17 -16 -16 -16 -16 -16 -16 -16 -16 -15 -15 -15 -15 -15 -14 -14 -13 -14
-14 -14 -15 -15 -15 -14 -15 -15 -15 -15 -15 -15 -15 -16 -16 -17 -17 -17 -17 -17 -17 -17 -17 -17 -17 -17 -17 -18 -17 -17 -17 -16 -16 -16 -16 -16 -15 -15 -15 -15 -15 -14 -14
-15 -14 -15 -16 -16 -16 -16 -16 -16 -16 -16 -16 -17 -17 -17 -18 -18 -18 -18 -17 -17 -17 -18 -18 -18 -18 -18 -18 -18 -17 -17 -17 -16 -16 -16 -16 -16 -16 -16 -15 -15 -15 -14
-14 -14 -16 -16 -17 -17 -16 -16 -17 -17 -17 -17 -17 -17 -18 -18 -18 -18 -18 -18 -18 -18 -18 -18 -18 -18 -18 -19 -18 -18 -18 -17 -17 -16 -16 -16 -16 -16 -16 -16 -15 -15 -15
-16 -16 -16 -17 -16 -16 -17 -17 -17 -18 -18 -18 -18 -18 -19 -19 -18 -18 -18 -19 -19 -18 -19 -18 -18 -18 -18 -19 -19 -19 -18 -18 -17 -16 -16 -16 -16 -16 -16 -16 -17 -15 -15
-17 -17 -17 -16 -17 -17 -18 -18 -18 -18 -18 -18 -19 -19 -19 -19 -19 -19 -19 -19 -19 -19 -19 -19 -19 -19 -19 -19 -19 -19 -19 -18 -18 -17 -16 -16 -16 -16 -15 -16 -16 -16 -15
-17 -16 -16 -16 -17 -18 -18 -18 -18 -19 -19 -19 -19 -19 -19 -20 -20 -20 -20 -20 -20 -20 -19 -18 -19 -19 -19 -19 -19 -19 -19 -19 -18 -17 -17 -16 -16 -16 -15 -15 -16 -16 -16
-17 -17 -18 -18 -18 -19 -19 -19 -19 -19 -19 -19 -20 -20 -20 -21 -21 -22 -22 -22 -21 -21 -20 -19 -18 -18 -18 -19 -19 -19 -19 -18 -18 -18 -17 -16 -16 -16 -15 -15 -15 -15 -16
-18 -19 -19 -19 -19 -19 -19 -19 -19 -20 -20 -20 -20 -20 -20 -21 -21 -22 -22 -22 -22 -21 -20 -19 -18 -18 -18 -19 -19 -19 -19 -18 -18 -18 -17 -17 -16 -16 -16 -15 -15 -15 -15
-19 -19 -18 -18 -19 -19 -19 -19 -20 -20 -20 -20 -20 -20 -20 -21 -21 -21 -22 -22 -23 -22 -20 -19 -18 -18 -18 -18 -19 -19 -18 -18 -18 -17 -17 -17 -16 -16 -16 -15 -15 -15 -15
-19 -19 -19 -19 -19 -19 -19 -19 -19 -20 -20 -20 -20 -20 -20 -20 -20 -21 -21 -22 -22 -22 -21 -19 -18 -18 -18 -18 -18 -18 -18 -18 -18 -17 -17 -17 -17 -16 -16 -16 -15 -15 -15
-18 -19 -19 -19 -19 -19 -19 -19 -19 -19 -20 -20 -20 -20 -20 -20 -20 -21 -21 -21 -21 -21 -21 -20 -19 -18 -18 -18 -18 -18 -18 -18 -18 -18 -18 -17 -17 -17 -16 -16 -16 -16 -16
-19 -20 -20 -20 -20 -19 -19 -19 -20 -20 -20 -20 -20 -20 -21 -20 -20 -21 -21 -21 -21 -20 -20 -20 -19 -18 -17 -17 -17 -17 -17 -18 -18 -18 -18 -17 -17 -17 -17 -16 -17 -17 -17
-20 -21 -21 -20 -20 -20 -20 -20 -20 -20 -20 -20 -20 -21 -20 -20 -20 -20 -21 -21 -20 -20 -20 -19 -19 -18 -17 -17 -17 -17 -17 -17 -18 -18 -18 -18 -17 -17 -17 -16 -17 -17 -17
-21 -21 -21 -21 -20 -20 -20 -20 -20 -20 -20 -20 -20 -20 -20 -20 -20 -20 -20 -20 -20 -20 -19 -19 -19 -18 -17 -17 -16 -16 -17 -17 -17 -17 -17 -17 -17 -17 -17 -17 -17 -17 -17
-22 -22 -21 -21 -21 -20 -20 -20 -20 -20 -20 -20 -20 -20 -20 -20 -20 -20 -20 -20 -20 -19 -19 -19 -19 -19 -18 -17 -16 -16 -16 -16 -16 -17 -17 -17 -17 -17 -17 -17 -17 -17 -17
-22 -22 -22 -21 -21 -21 -20 -20 -20 -20 -20 -20 -20 -20 -20 -19 -19 -19 -19 -20 -20 -19 -19 -19 -19 -19 -18 -18 -17 -16 -16 -16 -16 -17 -18 -18 -17 -17 -17 -17 -17 -17 -17
-22 -22 -22 -22 -22 -22 -21 -21 -20 -20 -20 -20 -20 -20 -20 -19 -19 -19 -19 -19 -20 -20 -20 -20 -20 -19 -19 -18 -17 -16 -16 -16 -16 -17 -17 -18 -18 -17 -18 -18 -18 -18 -18
-22 -22 -22 -22 -22 -22 -21 -21 -21 -20 -20 -20 -20 -20 -20 -20 -19 -19 -19 -19 -20 -20 -20 -20 -20 -20 -19 -18 -18 -17 -16 -16 -16 -17 -17 -17 -17 -17 -17 -18 -19 -18 -18
Height
5813 5813 5810 5807 5807 5802 5800 5798 5795 5793 5790 5788 5786 5784 5781 5779 5776 5773 5770 5767 5764 5760 5757 5754 5751 5749 5747 5746 5746 5745 5744 5746 5746 5746 5748 5749 5750 5751 5752 5752 5755 5757 5758
5804 5801 5801 5798 5795 5793 5791 5789 5786 5784 5781 5779 5777 5775 5772 5770 5766 5763 5760 5757 5754 5750 5746 5743 5740 5737 5735 5733 5732 5732 5732 5732 5734 5734 5736 5739 5739 5742 5745 5748 5747 5748 5750
5790 5790 5791 5787 5785 5783 5781 5779 5776 5773 5771 5769 5767 5764 5762 5759 5755 5752 5748 5744 5741 5738 5734 5731 5728 5726 5724 5722 5720 5719 5719 5719 5721 5722 5722 5727 5729 5732 5735 5737 5740 5740 5743
5784 5785 5782 5776 5774 5773 5770 5768 5765 5762 5760 5758 5755 5752 5749 5746 5742 5738 5734 5731 5727 5723 5720 5718 5716 5713 5711 5709 5708 5706 5706 5707 5707 5709 5710 5713 5717 5720 5724 5725 5731 5734 5735
5776 5776 5774 5768 5767 5764 5758 5756 5754 5751 5749 5745 5742 5739 5736 5732 5729 5724 5720 5716 5713 5708 5706 5704 5702 5701 5700 5699 5697 5695 5694 5693 5693 5695 5698 5700 5703 5709 5715 5714 5722 5726 5730
5763 5762 5762 5760 5756 5751 5747 5746 5743 5740 5737 5732 5728 5725 5721 5717 5714 5710 5706 5702 5699 5695 5692 5690 5689 5688 5687 5686 5685 5684 5681 5681 5681 5682 5684 5687 5692 5696 5703 5707 5710 5719 5721
5749 5750 5750 5745 5741 5736 5734 5731 5729 5726 5723 5719 5716 5710 5706 5702 5698 5694 5691 5687 5685 5681 5679 5676 5673 5673 5673 5671 5670 5670 5669 5668 5670 5672 5673 5675 5677 5681 5687 5690 5695 5703 5711
5734 5733 5734 5728 5726 5725 5721 5719 5717 5713 5709 5706 5700 5695 5691 5686 5682 5680 5676 5673 5669 5666 5664 5662 5659 5656 5655 5654 5655 5654 5655 5656 5658 5660 5661 5663 5667 5670 5674 5679 5684 5690 5699
5717 5712 5714 5712 5708 5709 5707 5707 5704 5700 5695 5690 5685 5681 5676 5671 5666 5664 5660 5657 5654 5651 5648 5646 5643 5640 5637 5636 5635 5637 5639 5641 5644 5648 5650 5652 5653 5657 5663 5666 5671 5678 5683
5714 5706 5703 5698 5696 5696 5697 5693 5688 5684 5679 5675 5670 5665 5661 5657 5652 5647 5645 5642 5639 5636 5632 5630 5628 5625 5622 5621 5621 5622 5625 5628 5630 5635 5638 5640 5642 5645 5649 5653 5658 5666 5673
5693 5689 5687 5683 5682 5683 5681 5677 5672 5667 5664 5659 5655 5650 5645 5641 5636 5632 5628 5625 5623 5621 5618 5616 5614 5612 5610 5608 5608 5610 5611 5615 5617 5621 5626 5630 5633 5635 5639 5642 5646 5652 5662
5684 5682 5680 5675 5674 5671 5666 5662 5658 5653 5649 5643 5638 5633 5627 5623 5619 5615 5611 5607 5605 5604 5602 5601 5600 5598 5596 5596 5596 5597 5599 5602 5605 5608 5613 5618 5622 5626 5629 5634 5638 5643 5651
5676 5674 5671 5666 5663 5657 5652 5649 5644 5638 5632 5628 5622 5617 5611 5605 5599 5595 5591 5588 5585 5584 5584 5584 5584 5584 5583 5583 5584 5585 5587 5590 5594 5597 5600 5605 5610 5614 5619 5624 5631 5632 5638
5672 5665 5661 5657 5651 5647 5642 5636 5630 5623 5618 5612 5606 5600 5594 5587 5580 5575 5572 5568 5565 5564 5563 5565 5567 5568 5569 5570 5571 5573 5575 5578 5582 5586 5589 5593 5599 5605 5609 5613 5619 5626 5629
5657 5654 5648 5644 5640 5635 5629 5623 5616 5609 5602 5597 5590 5584 5578 5571 5564 5558 5553 5549 5546 5545 5545 5547 5550 5551 5555 5557 5559 5561 5563 5566 5570 5574 5578 5583 5589 5595 5600 5604 5609 5616 5623
5645 5642 5639 5635 5630 5623 5617 5609 5601 5597 5590 5584 5578 5573 5568 5561 5554 5547 5540 5535 5530 5527 5528 5530 5533 5536 5541 5543 5546 5549 5551 5554 5558 5562 5567 5572 5578 5584 5590 5596 5603 5608 5615
5636 5634 5631 5624 5617 5611 5606 5600 5593 5586 5582 5576 5570 5564 5557 5550 5543 5536 5530 5525 5519 5515 5514 5516 5519 5523 5528 5531 5535 5537 5539 5542 5545 5550 5555 5560 5567 5574 5580 5586 5593 5599 5605
5627 5622 5617 5612 5607 5602 5596 5592 5588 5583 5577 5570 5563 5557 5549 5542 5535 5528 5522 5516 5512 5507 5506 5507 5509 5513 5516 5520 5523 5526 5528 5530 5533 5537 5543 5548 5555 5562 5569 5575 5582 5590 5596
5617 5613 5609 5603 5598 5593 5589 5585 5580 5574 5569 5564 5557 5549 5542 5536 5530 5524 5518 5513 5508 5504 5501 5500 5501 5504 5507 5510 5513 5516 5517 5519 5523 5527 5532 5537 5543 5550 5558 5564 5571 5579 5586
5610 5605 5599 5594 5590 5585 5582 5577 5572 5567 5562 5556 5550 5543 5534 5530 5525 5519 5514 5508 5504 5500 5497 5494 5494 5496 5498 5501 5504 5506 5508 5510 5513 5518 5522 5527 5533 5540 5547 5555 5562 5570 5577
5602 5598 5593 5587 5582 5577 5573 5569 5564 5560 5556 5550 5543 5535 5529 5525 5521 5515 5509 5504 5500 5495 5491 5489 5488 5489 5491 5493 5496 5499 5501 5504 5507 5511 5515 5520 5525 5532 5539 5546 5554 5562 5569
5595 5591 5586 5580 5574 5569 5565 5561 5557 5554 5550 5545 5537 5530 5524 5520 5515 5510 5505 5500 5496 5492 5488 5485 5482 5482 5484 5486 5489 5492 5495 5498 5502 5506 5510 5514 5519 5525 5531 5538 5546 5554 5561
5587 5583 5578 5573 5567 5562 5558 5554 5551 5548 5544 5539 5533 5527 5522 5516 5511 5505 5500 5496 5491 5487 5484 5480 5477 5476 5477 5479 5482 5486 5489 5493 5497 5501 5506 5510 5515 5520 5526 5532 5538 5546 5554
5580 5576 5572 5567 5561 5556 5552 5548 5544 5541 5538 5534 5529 5524 5519 5514 5508 5503 5497 5492 5486 5482 5478 5474 5470 5468 5468 5471 5474 5479 5483 5487 5492 5496 5501 5505 5510 5516 5521 5527 5532 5539 5546
5575 5571 5566 5562 5556 5551 5546 5542 5538 5536 5533 5529 5525 5520 5516 5511 5505 5500 5494 5488 5482 5476 5471 5466 5461 5458 5458 5461 5466 5470 5476 5482 5487 5491 5496 5500 5504 5508 5513 5519 5524 5530 5539
5570 5566 5561 5556 5551 5546 5540 5536 5533 5530 5527 5524 5521 5517 5512 5508 5503 5497 5491 5484 5478 5472 5466 5459 5452 5448 5449 5453 5458 5464 5469 5475 5481 5486 5491 5495 5498 5501 5504 5509 5515 5522 5531
Wind_Speed
44 40 33 32 39 38 38 38 38 38 38 37 37 38 38 40 41 43 46 47 48 49 50 51 51 49 48 46 44 41 39 37 41 39 36 40 42 41 23 24 27 18 19
50 31 34 35 37 39 37 38 36 37 36 37 37 38 40 41 43 45 47 49 50 51 52 51 51 50 49 48 46 45 42 41 40 44 38 37 38 41 36 22 15 17 19
48 29 38 36 39 38 37 38 38 38 37 39 40 40 42 44 48 50 52 52 52 52 52 50 50 50 50 49 47 46 45 44 42 42 44 39 43 38 37 39 26 21 18
24 29 34 37 39 38 37 40 41 39 40 41 41 44 46 49 52 53 54 54 53 52 51 50 48 47 45 43 44 45 44 44 45 43 44 41 41 38 38 44 33 29 25
38 46 34 36 38 39 36 42 44 44 44 44 46 49 51 54 56 56 55 55 53 50 49 47 44 43 38 37 39 44 45 45 46 46 43 40 38 35 40 43 37 36 30
45 45 38 38 43 41 41 48 48 49 45 49 51 53 55 57 58 56 55 53 51 49 49 48 47 46 42 40 40 41 44 45 45 46 46 42 37 36 40 51 49 44 36
45 44 45 43 46 45 46 45 44 44 51 54 56 55 57 59 57 54 51 51 51 52 53 53 51 50 49 46 45 42 42 45 43 43 44 42 40 38 41 56 43 48 37
52 44 47 54 46 44 47 51 53 61 59 60 58 59 60 58 55 52 52 52 52 51 50 51 51 52 52 48 49 43 42 42 42 41 41 43 41 41 42 46 50 52 49
53 52 57 50 42 53 53 57 60 66 66 65 62 63 61 56 55 54 53 52 52 55 56 54 50 48 45 43 41 40 42 40 42 40 40 41 41 38 36 39 55 53 50
54 45 52 49 44 54 59 62 64 64 65 66 66 63 59 56 56 53 54 55 56 54 49 46 42 41 40 40 40 38 39 38 39 41 41 40 38 36 36 34 42 43 54
49 48 50 48 56 59 61 61 63 68 69 67 64 62 59 57 56 57 58 56 52 47 45 42 40 39 38 38 38 38 38 38 38 41 43 41 39 36 36 31 40 43 52
47 55 56 52 54 60 62 66 68 70 66 63 61 59 58 60 61 62 61 58 56 54 51 47 44 40 39 38 36 36 37 36 36 39 42 43 40 38 35 36 28 44 47
68 59 52 49 55 60 63 66 63 62 61 59 57 58 59 61 64 65 64 62 59 56 52 48 44 41 40 38 37 35 34 35 37 36 40 40 39 36 34 32 35 27 45
39 42 47 52 54 57 57 58 57 58 60 61 61 62 61 59 57 55 52 50 49 50 50 47 43 42 39 37 35 35 34 34 36 38 37 40 37 36 34 31 32 33 30
42 43 44 46 48 51 54 58 60 59 56 53 51 50 47 43 44 44 44 45 48 50 47 44 41 41 38 35 33 32 34 34 35 37 39 39 39 37 35 34 33 31 33
36 39 43 46 51 54 54 51 48 47 44 37 33 35 39 40 40 39 37 36 39 41 40 39 38 38 35 33 30 30 31 33 35 36 39 42 41 40 39 38 36 33 35
35 41 45 48 46 43 41 40 34 33 33 38 38 38 41 41 37 37 36 34 32 32 30 31 34 34 33 30 30 28 29 30 34 36 39 41 43 43 43 41 40 37 36
38 40 42 45 35 37 29 28 32 36 36 36 35 38 37 32 28 27 27 25 23 24 23 24 29 31 31 30 29 28 28 28 30 34 37 41 42 43 45 45 43 42 39
39 40 41 34 34 30 29 33 35 30 29 31 34 34 33 26 28 29 27 23 20 21 20 20 25 28 29 29 27 26 25 25 26 29 32 37 40 43 45 44 45 45 43
36 35 36 32 32 32 32 33 29 27 29 30 33 36 29 25 28 27 28 24 24 25 21 20 22 25 27 27 25 24 22 21 23 26 29 32 35 39 43 44 42 40 41
33 32 33 31 30 28 27 28 25 27 25 29 34 31 24 24 26 27 28 22 23 23 19 19 21 21 25 26 24 22 20 19 20 23 26 29 32 34 38 41 42 40 40
30 30 30 29 27 26 26 25 23 21 23 28 31 26 24 25 27 27 26 22 21 21 21 19 18 20 22 24 25 22 20 19 20 22 23 26 28 31 34 37 40 41 40
27 27 26 28 27 26 25 22 21 19 23 27 25 24 23 24 24 24 23 24 23 23 22 22 21 21 21 23 25 24 22 21 20 21 23 25 26 28 29 32 36 40 42
23 23 24 26 26 26 24 22 21 19 21 23 21 21 22 22 22 24 24 24 26 23 23 24 23 22 23 24 25 26 25 24 23 22 23 24 27 26 28 32 34 36 41
22 21 22 24 25 25 24 23 20 18 19 19 19 19 20 21 23 25 28 29 26 24 24 26 24 22 24 25 26 27 26 24 24 23 24 24 25 27 28 31 37 38 40
22 21 22 24 25 24 23 22 22 19 18 19 18 18 19 21 23 25 29 32 29 26 25 26 21 17 20 24 26 27 25 23 24 23 22 22 23 24 26 32 37 39 41
Wind_Direction
271 277 289 290 287 287 288 287 286 286 286 286 287 287 288 289 291 292 293 293 294 294 294 294 292 291 290 288 285 281 279 274 269 274 259 257 264 256 261 246 227 236 227
275 274 280 283 287 287 286 284 284 284 284 285 286 287 288 289 290 291 291 292 293 292 291 290 290 290 289 287 285 282 278 276 272 271 268 253 261 256 258 256 228 241 235
267 269 282 285 283 282 282 284 283 283 285 285 286 288 290 292 293 293 293 294 295 292 289 287 286 285 284 283 282 280 280 277 275 270 271 266 260 269 268 260 235 235 240
273 277 280 275 278 278 282 283 281 281 282 285 288 290 292 293 294 295 295 295 293 289 286 285 283 281 279 278 277 275 274 274 272 270 269 269 265 265 266 269 253 245 236
276 280 288 275 279 279 276 277 283 283 284 288 292 294 295 296 296 296 296 294 292 290 287 284 279 274 271 275 275 274 270 267 266 266 266 266 267 259 253 257 253 250 233
279 276 287 279 285 285 282 283 282 283 283 291 294 296 297 297 296 297 295 292 289 287 284 282 278 273 270 281 278 272 268 266 264 263 263 264 256 251 237 249 252 245 242
283 276 290 288 289 284 283 283 277 289 288 292 295 297 298 297 297 295 292 289 287 285 284 287 285 278 277 273 279 280 264 262 261 260 258 258 257 255 249 248 243 235 237
284 296 295 296 279 290 290 285 280 293 296 298 299 300 298 297 294 291 288 287 288 288 287 288 288 286 286 282 276 275 260 257 254 255 254 252 248 248 249 243 245 238 238
269 300 302 286 277 294 298 297 294 296 297 297 296 295 295 293 291 290 288 289 288 291 294 293 288 285 283 277 263 259 255 252 250 248 251 251 251 249 253 249 240 242 223
280 275 272 270 284 302 297 296 294 294 293 292 294 294 292 290 289 290 289 289 289 291 289 286 284 282 276 278 266 255 255 251 246 242 246 251 250 251 251 252 241 239 227
240 242 259 292 311 300 297 294 294 293 293 297 297 293 292 289 290 291 291 290 288 285 284 285 285 284 276 272 267 255 252 252 243 238 237 240 244 248 245 249 239 234 223
270 282 288 300 300 294 293 296 297 298 299 296 293 291 289 287 289 289 288 287 285 284 283 282 281 279 277 269 264 257 252 250 242 237 236 238 238 239 240 236 246 226 222
279 285 291 297 294 295 298 298 298 296 296 295 294 292 291 289 289 288 287 286 283 282 279 277 275 275 273 269 261 256 253 248 242 238 235 235 234 237 239 236 231 233 224
296 300 299 295 297 299 297 295 296 296 297 296 294 292 292 292 290 289 287 285 282 278 276 273 269 267 269 265 262 256 251 247 243 236 235 232 229 228 233 234 231 225 213
303 297 297 297 296 297 298 299 298 297 298 297 298 299 300 300 299 296 289 283 279 278 277 272 265 261 262 263 259 256 252 246 240 235 230 230 227 226 227 231 234 228 218
299 300 299 299 299 299 299 299 301 302 304 307 310 310 308 307 304 302 301 298 287 279 272 266 258 255 257 260 258 253 247 245 240 234 230 226 224 224 227 228 228 228 223
301 300 299 300 304 304 302 304 304 307 308 310 311 312 313 312 310 305 299 299 299 286 275 260 252 252 254 257 257 254 250 243 237 232 229 227 223 222 224 226 226 225 227
305 306 307 308 301 303 304 304 302 302 300 304 310 315 320 318 319 323 321 308 299 296 280 261 251 249 252 256 257 256 254 247 237 230 226 225 222 219 219 221 222 222 224
308 306 307 303 305 298 292 298 303 303 305 307 310 315 323 321 321 327 319 325 331 318 306 273 257 251 253 256 258 257 253 245 235 228 220 220 221 217 215 218 220 221 219
305 308 312 306 306 301 297 301 304 300 307 310 316 321 318 311 318 322 325 313 315 322 304 285 267 257 254 256 256 255 249 240 230 224 219 216 217 214 213 215 218 219 218
307 308 311 308 306 303 298 302 299 304 310 317 324 326 323 316 318 326 329 324 328 328 320 295 277 263 255 253 252 249 243 235 224 220 216 215 215 213 212 212 212 213 213
304 306 309 312 310 310 304 304 301 303 312 321 331 334 326 319 319 321 327 324 325 332 328 312 293 272 254 249 247 245 239 231 222 216 212 211 211 212 213 211 211 209 210
305 306 310 317 315 314 310 305 305 300 310 321 332 336 334 334 335 332 328 330 321 318 324 319 298 277 260 244 240 238 237 232 225 214 209 206 205 207 208 210 210 209 208
312 311 313 320 319 315 315 308 305 302 311 320 330 334 337 340 342 345 344 334 331 320 317 318 305 278 258 245 233 229 228 228 223 215 210 211 213 212 212 213 211 209 208
323 318 321 325 324 321 316 312 306 301 307 318 324 331 337 343 346 349 348 345 336 326 321 319 304 279 253 239 230 224 223 222 222 215 212 218 223 226 222 217 215 213 206
327 326 328 332 331 327 323 315 311 302 300 309 315 321 330 335 339 344 346 344 340 334 330 331 317 280 241 228 221 218 217 216 215 212 214 221 225 226 225 220 214 213 206